Location: The Jewett Observatory
(46.7288°N, 117.1525°W)
Time: 18:55:00
(UTC-07:00)

Amateur Radio Satellites - All Passes

Search period start: 25 September 2016 18:25
Search period end: 26 September 2016 18:25
Location: The Jewett Observatory, 46.7288°N, 117.1525°W

Satellite Date Start Highest point End Downlink Frequencies (MHz)
Time Altitude Azimuth
RS-15 25 Sep 18:26:10 18:31:48 15° 92° (E) 18:37:31 29.354- 29.394
STARS 25 Sep 18:26:11 18:30:00 30° 294° (WNW) 18:33:48 437.465
CUSAT 1 25 Sep 18:30:54 18:35:50 25° 81° (E) 18:41:33 437.405
LilacSat-2 25 Sep 18:40:39 18:44:11 40° 262° (W) 18:47:46 437.200
MOZHAYETS 4 25 Sep 18:41:31 18:41:41 10° 305° (NW) 18:41:50
CUTE 1.7 + AOD 2 25 Sep 18:42:10 18:45:08 19° 63° (ENE) 18:48:08 437.475
CANX-2 25 Sep 18:42:36 18:45:49 21° 64° (ENE) 18:49:03 2200.000
NOAA 15 25 Sep 18:47:25 18:52:21 38° 263° (W) 18:57:20 137.62
BRITE-PL 25 Sep 18:48:01 18:52:30 24° 269° (W) 18:56:57 437.365/2234.400
SEEDS 25 Sep 18:48:49 18:51:23 16° 61° (ENE) 18:53:57 437.485
HO-68 25 Sep 18:49:09 18:55:50 43° 62° (ENE) 19:02:30 435.675
GOMX 1 25 Sep 18:49:29 18:54:35 41° 263° (W) 18:59:30 467.674
Cosmos 2499 25 Sep 18:53:00 18:58:56 25° 64° (ENE) 19:05:09 435.465 / 435.565
Cubesat XI-IV 25 Sep 18:54:24 18:59:24 41° 262° (W) 19:04:27 437.490
CUTE-I 25 Sep 18:55:26 19:00:23 40° 262° (W) 19:05:24 437.470
CUBEBUG 2 25 Sep 19:07:20 19:09:24 14° 60° (ENE) 19:11:28 437.445
NOAA 18 25 Sep 19:15:27 19:20:22 33° 264° (W) 19:25:19 137.9125
CINEMA 3 25 Sep 19:17:04 19:21:29 56° 72° (ENE) 19:25:43 145.822/145.860
GONETS M04 25 Sep 19:17:44 19:26:05 43° 70° (ENE) 19:34:19
AAUSAT CUBESAT 2 25 Sep 19:18:27 19:21:15 18° 63° (ENE) 19:24:03 437.432
DOVE 4 25 Sep 19:24:01 19:28:44 39° 263° (W) 19:33:14 437.250
UWE-3 25 Sep 19:30:17 19:32:44 16° 62° (ENE) 19:35:12 435.000/436.395/437.385
DANDE 25 Sep 19:37:33 19:41:54 28° 83° (E) 19:47:19 436.750
CUBESAT XI-V 25 Sep 19:52:46 19:54:50 13° 303° (WNW) 19:56:53 437.345
STRAND 1 25 Sep 19:52:58 19:57:57 47° 99° (E) 20:02:56 437.568
COMPASS 1 25 Sep 19:58:39 20:02:43 54° 72° (ENE) 20:06:50 437.405
ZACube-1 25 Sep 20:04:25 20:07:36 22° 65° (ENE) 20:10:47 437.345
Oscar 11 25 Sep 20:06:53 20:10:20 24° 65° (ENE) 20:13:47 145.826/435.025
CUSAT 1 25 Sep 20:10:49 20:16:58 70° 284° (WNW) 20:24:36 437.405
CUTE 1.7 + AOD 2 25 Sep 20:16:33 20:20:38 48° 261° (W) 20:24:48 437.475
CANX-2 25 Sep 20:17:24 20:21:25 41° 262° (W) 20:25:29 2200.000
SEEDS 25 Sep 20:22:29 20:26:38 59° 260° (W) 20:30:50 437.485
RS-15 25 Sep 20:30:06 20:41:27 63° 116° (ESE) 20:53:22 29.354- 29.394
AO-85 25 Sep 20:32:06 20:34:00 12° 108° (ESE) 20:35:51 145.980
HO-68 25 Sep 20:36:47 20:43:33 44° 262° (W) 20:50:21 435.675
CUBEBUG 2 25 Sep 20:41:20 20:45:32 69° 258° (WSW) 20:49:42 437.445
PRISM 25 Sep 20:45:01 20:47:30 15° 91° (E) 20:49:57 437.425
Cosmos 2499 25 Sep 20:45:21 20:52:45 74° 265° (W) 21:00:44 435.465 / 435.565
HUMSAT D 25 Sep 20:47:28 20:49:33 14° 60° (ENE) 20:51:36 437.325/437.525
AAUSAT CUBESAT 2 25 Sep 20:52:18 20:56:21 51° 261° (W) 21:00:27 437.432
CINEMA 3 25 Sep 20:56:07 20:58:56 16° 269° (W) 21:01:41 145.822/145.860
DELFI C3 25 Sep 20:58:26 21:01:58 31° 68° (ENE) 21:05:32 145.870
FUNcube-1 25 Sep 20:58:47 21:02:54 73° 74° (ENE) 21:07:02 145.935
UWE-3 25 Sep 21:04:40 21:08:47 58° 259° (W) 21:12:54 435.000/436.395/437.385
GONETS M04 25 Sep 21:14:41 21:23:01 49° 272° (W) 21:31:16
DANDE 25 Sep 21:19:12 21:24:11 48° 290° (WNW) 21:30:47 436.750
STRAND 1 25 Sep 21:32:39 21:36:53 26° 298° (WNW) 21:41:06 437.568
COMPASS 1 25 Sep 21:36:06 21:38:37 15° 270° (W) 21:41:09 437.405
SO-50 25 Sep 21:38:18 21:39:03 10° 15° (NNE) 21:39:48 436.795
ZACube-1 25 Sep 21:39:49 21:43:42 38° 263° (W) 21:47:35 437.345
Oscar 11 25 Sep 21:42:15 21:46:16 38° 263° (W) 21:50:20 145.826/435.025
ISS 25 Sep 21:48:46 21:51:55 46° 146° (SE) 21:55:05 145.825
CUSAT 1 25 Sep 21:56:26 22:00:42 17° 309° (NW) 22:05:23 437.405
UNISAT 6 25 Sep 22:03:08 22:05:51 16° 91° (E) 22:08:34 437.425
AO-85 25 Sep 22:08:36 22:13:47 76° 124° (SE) 22:18:37 145.980
PRISM 25 Sep 22:19:04 22:23:08 53° 289° (WNW) 22:27:09 437.425
HUMSAT D 25 Sep 22:20:35 22:24:38 67° 259° (W) 22:28:45 437.325/437.525
ESTCUBE 1 25 Sep 22:23:21 22:27:04 26° 65° (ENE) 22:30:48 437.505/2401.250
M-CUBED/EXP-1 PRIME 25 Sep 22:26:05 22:28:39 17° 58° (ENE) 22:31:07 437.505
DELFI C3 25 Sep 22:33:32 22:36:50 24° 266° (W) 22:40:10 145.870
VELOX 1 25 Sep 22:33:35 22:36:33 18° 61° (ENE) 22:39:30 145.980
DX 1 25 Sep 22:34:48 22:36:32 12° 57° (ENE) 22:38:16 434.975-435.025
ANTELSAT 25 Sep 22:37:40 22:41:41 34° 97° (E) 22:45:45 437.575/2403.000
FUNcube-1 25 Sep 22:38:27 22:39:40 11° 272° (W) 22:40:53 145.935
Cosmos 2499 25 Sep 22:40:59 22:44:38 14° 284° (WNW) 22:48:24 435.465 / 435.565
RS-15 25 Sep 22:42:52 22:54:23 54° 323° (NW) 23:06:27 29.354- 29.394
CUBEBUG 1 25 Sep 22:43:05 22:46:44 26° 65° (ENE) 22:50:22 437.445
TIGRISAT 25 Sep 22:58:42 23:02:59 53° 100° (E) 23:07:19 435.000
DANDE 25 Sep 23:08:37 23:09:16 10° 316° (NW) 23:09:58 436.750
50 SAT 25 Sep 23:09:27 23:12:38 29° 69° (ENE) 23:15:52 437.505
SO-50 25 Sep 23:17:06 23:21:06 28° 38° (NE) 23:25:01 436.795
AUBIESAT-1 25 Sep 23:23:34 23:27:30 49° 66° (ENE) 23:31:10 437.475
AISAT 25 Sep 23:24:22 23:28:42 54° 71° (ENE) 23:33:04 437.250
ISS 25 Sep 23:25:18 23:28:27 44° 345° (NNW) 23:31:37 145.825
SPROUT 25 Sep 23:34:29 23:38:23 35° 68° (ENE) 23:42:16 437.525
UNISAT 6 25 Sep 23:38:37 23:42:55 58° 288° (WNW) 23:47:17 437.425
JAS-2 25 Sep 23:39:15 23:45:52 29° 89° (E) 23:52:16 435.910
UKube-1 25 Sep 23:43:47 23:47:51 41° 69° (ENE) 23:51:57 .
QB50P1 25 Sep 23:45:04 23:48:33 24° 94° (E) 23:52:00 145.935-145.965
DUCHIFAT 1 25 Sep 23:45:39 23:48:56 22° 93° (E) 23:52:11 145.980
AO-85 25 Sep 23:50:41 23:54:42 23° 323° (NW) 23:58:31 145.980
POPSAT HIP 1 25 Sep 23:58:08 00:01:58 32° 97° (E) 00:05:45 437.405
M-CUBED/EXP-1 PRIME 25 Sep 23:58:46 00:02:53 56° 253° (WSW) 00:06:43 437.505
BUGSAT 1 25 Sep 23:58:49 00:00:25 12° 89° (E) 00:02:01 437.445
ESTCUBE 1 25 Sep 23:59:27 00:03:41 39° 262° (W) 00:07:58 437.505/2401.250
DX 1 26 Sep 00:07:40 00:12:03 89° 256° (WSW) 00:16:28 434.975-435.025
VELOX 1 26 Sep 00:08:11 00:12:35 59° 259° (W) 00:17:00 145.980
ANTELSAT 26 Sep 00:14:36 00:18:17 27° 294° (WNW) 00:22:01 437.575/2403.000
NANOSAT C BR1 26 Sep 00:15:54 00:19:59 48° 99° (E) 00:24:03 145.865
CUBEBUG 1 26 Sep 00:18:46 00:22:51 37° 263° (W) 00:26:58 437.445
SWISSCUBE 26 Sep 00:33:44 00:34:34 10° 54° (NE) 00:35:24 437.505
TIGRISAT 26 Sep 00:36:19 00:39:20 19° 297° (WNW) 00:42:23 435.000
QB50P2 26 Sep 00:37:04 00:41:19 89° 284° (WNW) 00:45:32 145.880/145.840
POLYITAN 1 26 Sep 00:39:19 00:43:33 88° 277° (W) 00:47:46 437.675
50 SAT 26 Sep 00:43:22 00:46:11 21° 266° (W) 00:49:02 437.505
BEESAT 26 Sep 00:45:46 00:47:41 12° 55° (NE) 00:49:37 436.000
SO-50 26 Sep 00:57:22 01:01:50 51° 239° (WSW) 01:06:11 436.795
AUBIESAT-1 26 Sep 00:59:34 01:02:08 16° 261° (W) 01:04:37 437.475
RS-15 26 Sep 00:59:47 01:10:27 33° 355° (N) 01:21:19 29.354- 29.394
Cosmos 2491 26 Sep 01:00:17 01:07:56 31° 64° (ENE) 01:15:30 435.465 / 435.565
ISS 26 Sep 01:02:21 01:05:24 34° 5° (N) 01:08:27 145.825
AISAT 26 Sep 01:02:31 01:05:30 17° 269° (W) 01:08:30 437.250
TISAT 1 26 Sep 01:02:37 01:06:47 64° 73° (ENE) 01:10:56 437.305
BEESAT 2 26 Sep 01:07:00 01:07:59 11° 109° (ESE) 01:08:58 435.950
SPROUT 26 Sep 01:10:54 01:14:24 24° 266° (W) 01:17:55 437.525
Oscar 19 26 Sep 01:17:49 01:21:38 20° 91° (E) 01:25:23 437.125/150
QB50P1 26 Sep 01:20:35 01:24:23 34° 292° (WNW) 01:28:11 145.935-145.965
UKube-1 26 Sep 01:20:43 01:24:03 21° 266° (W) 01:27:25 .
DUCHIFAT 1 26 Sep 01:20:52 01:24:45 37° 291° (WNW) 01:28:37 145.980
JAS-2 26 Sep 01:23:35 01:31:26 72° 289° (WNW) 01:39:04 435.910
BUGSAT 1 26 Sep 01:32:14 01:36:14 64° 287° (WNW) 01:40:12 437.445
POPSAT HIP 1 26 Sep 01:34:07 01:37:37 26° 294° (WNW) 01:41:07 437.405
BEESAT 3 26 Sep 01:50:16 01:54:06 58° 122° (ESE) 01:57:59 437.485
NANOSAT C BR1 26 Sep 01:52:28 01:55:23 19° 297° (WNW) 01:58:19 145.865
ITUPSAT 1 26 Sep 01:52:40 01:57:11 45° 69° (ENE) 02:01:45 437.325
Gurwin Techsat 1B 26 Sep 01:57:50 02:02:02 23° 92° (E) 02:06:14 435.225
YUBILEINY 26 Sep 02:05:56 02:12:46 26° 79° (E) 02:19:34 435.215
SWISSCUBE 26 Sep 02:06:45 02:11:28 68° 73° (ENE) 02:16:13 437.505
QB50P2 26 Sep 02:15:18 02:16:26 11° 302° (WNW) 02:17:34 145.880/145.840
POLYITAN 1 26 Sep 02:17:34 02:18:40 11° 302° (WNW) 02:19:47 437.675
BEESAT 26 Sep 02:19:57 02:24:42 82° 73° (ENE) 02:29:30 436.000
MOZHAYETS 4 26 Sep 02:29:37 02:32:55 20° 62° (ENE) 02:36:16
ISS 26 Sep 02:38:54 02:42:12 79° 25° (NNE) 02:45:30 145.825
TISAT 1 26 Sep 02:40:50 02:42:51 13° 270° (W) 02:44:53 437.305
BEESAT 2 26 Sep 02:41:11 02:45:08 85° 306° (NW) 02:49:10 435.950
Oscar 19 26 Sep 02:56:15 03:01:20 58° 289° (WNW) 03:06:22 437.125/150
Cosmos 2491 26 Sep 02:56:45 03:05:33 69° 266° (W) 03:14:16 435.465 / 435.565
AO-7 26 Sep 03:06:12 03:11:52 20° 89° (E) 03:17:29 29.400- 29.500
KKS-1 26 Sep 03:09:38 03:13:34 32° 67° (ENE) 03:17:31 437.445
JAS-2 26 Sep 03:09:59 03:15:10 20° 309° (NW) 03:20:19 435.910
RS-15 26 Sep 03:15:23 03:27:04 44° 29° (NNE) 03:38:40 29.354- 29.394
BEESAT 3 26 Sep 03:29:03 03:32:05 21° 322° (NW) 03:35:09 437.485
ITUPSAT 1 26 Sep 03:31:27 03:35:14 23° 267° (W) 03:39:03 437.325
Gurwin Techsat 1B 26 Sep 03:37:07 03:42:18 53° 291° (WNW) 03:47:28 435.225
CUBESAT XI-V 26 Sep 03:43:59 03:47:00 17° 60° (ENE) 03:50:03 437.345
ITAMSAT 1 26 Sep 03:44:34 03:49:44 57° 101° (E) 03:54:52 435.822/435.867
SWISSCUBE 26 Sep 03:46:57 03:49:45 15° 270° (W) 03:52:33 437.505
PCSat 26 Sep 03:47:36 03:50:05 13° 103° (ESE) 03:52:34 145.827
STARS 26 Sep 03:48:55 03:53:00 38° 68° (ENE) 03:57:03 437.465
YUBILEINY 26 Sep 03:59:52 04:08:40 76° 281° (W) 04:17:29 435.215
BEESAT 26 Sep 04:01:02 04:03:06 13° 272° (W) 04:05:11 436.000
MOZHAYETS 4 26 Sep 04:05:16 04:09:44 52° 261° (W) 04:14:14
ISS 26 Sep 04:15:57 04:18:23 19° 223° (SW) 04:20:48 145.825
Cosmos 2504 26 Sep 04:16:26 04:23:42 60° 93° (E) 04:30:44 435.465 / 435.565
BEESAT 2 26 Sep 04:21:08 04:23:35 16° 327° (NNW) 04:26:03 435.950
DANDE 26 Sep 04:31:40 04:32:54 10° 44° (NE) 04:34:09 436.750
AIST 2 26 Sep 04:45:43 04:49:48 74° 124° (SE) 04:53:57 435.215
KKS-1 26 Sep 04:46:14 04:50:07 29° 264° (W) 04:54:03 437.445
Cosmos 2491 26 Sep 04:56:15 05:00:38 15° 288° (WNW) 05:05:00 435.465 / 435.565
AO-7 26 Sep 04:57:27 05:05:48 85° 109° (ESE) 05:14:07 29.400- 29.500
AO-85 26 Sep 04:58:14 05:01:42 23° 36° (NE) 05:04:59 145.980
CUSAT 1 26 Sep 05:00:29 05:07:03 27° 60° (ENE) 05:13:01 437.405
AIST 1 26 Sep 05:10:06 05:14:04 34° 91° (E) 05:18:01
BRITE-PL 26 Sep 05:12:20 05:14:58 14° 86° (E) 05:17:29 437.365/2234.400
CUBESAT XI-V 26 Sep 05:19:12 05:23:52 67° 258° (WSW) 05:28:36 437.345
ITAMSAT 1 26 Sep 05:24:48 05:28:49 23° 300° (WNW) 05:32:50 435.822/435.867
STARS 26 Sep 05:25:57 05:29:28 23° 266° (W) 05:33:00 437.465
PCSat 26 Sep 05:27:11 05:32:36 83° 121° (ESE) 05:38:04 145.827
RS-15 26 Sep 05:28:33 05:41:00 83° 237° (WSW) 05:53:10 29.354- 29.394
STRAND 1 26 Sep 05:35:32 05:38:16 15° 56° (NE) 05:41:02 437.568
HORYU 2 26 Sep 05:53:55 05:58:19 56° 101° (E) 06:02:41 437.375
NOAA 18 26 Sep 05:55:37 05:57:38 12° 87° (E) 05:59:39 137.9125
YUBILEINY 26 Sep 06:01:21 06:07:12 19° 305° (NW) 06:13:02 435.215
DANDE 26 Sep 06:10:31 06:18:11 39° 67° (ENE) 06:25:44 436.750
Cosmos 2504 26 Sep 06:11:22 06:17:33 29° 294° (WNW) 06:23:38 435.465 / 435.565
LilacSat-2 26 Sep 06:11:37 06:14:14 17° 92° (E) 06:16:49 437.200
AIST 2 26 Sep 06:25:44 06:28:45 19° 324° (NW) 06:31:49 435.215
AO-85 26 Sep 06:38:21 06:42:29 55° 238° (WSW) 06:46:20 145.980
CUSAT 1 26 Sep 06:42:01 06:50:00 78° 263° (W) 06:56:52 437.405
AIST 1 26 Sep 06:48:04 06:51:43 25° 289° (WNW) 06:55:22
GOMX 1 26 Sep 06:48:39 06:53:04 50° 99° (E) 06:57:12 467.674
BRITE-PL 26 Sep 06:49:09 06:54:09 72° 286° (WNW) 06:58:42 437.365/2234.400
O/OREOS (USA 219) 26 Sep 06:50:54 06:53:44 16° 100° (E) 06:56:35 437.305
AO-7 26 Sep 06:51:07 06:57:43 28° 310° (NW) 07:04:18 29.400- 29.500
NOAA 15 26 Sep 06:59:04 07:04:22 64° 102° (ESE) 07:09:37 137.62
Cubesat XI-IV 26 Sep 07:08:08 07:13:28 63° 102° (ESE) 07:18:47 437.490
CUTE-I 26 Sep 07:08:56 07:14:16 65° 102° (ESE) 07:19:35 437.470
STRAND 1 26 Sep 07:11:37 07:16:43 89° 70° (ENE) 07:21:52 437.568
PCSat 26 Sep 07:12:26 07:16:41 23° 323° (NW) 07:20:57 145.827
DOVE 4 26 Sep 07:19:56 07:24:01 44° 98° (E) 07:27:59 437.250
HORYU 2 26 Sep 07:31:26 07:34:28 18° 299° (WNW) 07:37:30 437.375
NOAA 18 26 Sep 07:33:39 07:39:09 81° 105° (ESE) 07:44:38 137.9125
Cosmos 2499 26 Sep 07:36:55 07:40:39 15° 77° (ENE) 07:44:21 435.465 / 435.565
PRISM 26 Sep 07:37:05 07:39:54 18° 62° (ENE) 07:42:44 437.425
RS-15 26 Sep 07:42:33 07:51:40 25° 261° (W) 08:00:41 29.354- 29.394
LilacSat-2 26 Sep 07:45:06 07:48:42 40° 289° (WNW) 07:52:18 437.200
DANDE 26 Sep 07:53:12 08:01:20 59° 267° (W) 08:09:12 436.750
CUTE 1.7 + AOD 2 26 Sep 07:58:50 08:02:19 23° 93° (E) 08:05:47 437.475
CANX-2 26 Sep 07:59:32 08:03:15 27° 94° (E) 08:06:55 2200.000
HO-68 26 Sep 08:00:57 08:07:20 33° 95° (E) 08:13:38 435.675
SEEDS 26 Sep 08:04:09 08:07:13 19° 91° (E) 08:10:17 437.485
GONETS M04 26 Sep 08:22:24 08:30:35 44° 87° (E) 08:38:47
CUSAT 1 26 Sep 08:25:58 08:30:35 17° 284° (WNW) 08:34:54 437.405
GOMX 1 26 Sep 08:27:35 08:30:47 19° 299° (WNW) 08:33:51 467.674
BEESAT 3 26 Sep 08:27:58 08:30:29 16° 33° (NNE) 08:32:59 437.485
O/OREOS (USA 219) 26 Sep 08:28:07 08:32:38 61° 298° (WNW) 08:37:12 437.305
CUBEBUG 2 26 Sep 08:29:36 08:32:41 19° 92° (E) 08:35:48 437.445
BRITE-PL 26 Sep 08:30:15 08:31:35 11° 307° (NW) 08:32:54 437.365/2234.400
AAUSAT CUBESAT 2 26 Sep 08:32:10 08:35:20 20° 92° (E) 08:38:29 437.432
NOAA 15 26 Sep 08:39:45 08:43:41 21° 301° (WNW) 08:47:35 137.62
CINEMA 3 26 Sep 08:45:32 08:49:42 86° 286° (WNW) 08:53:55 145.822/145.860
FUNcube-1 26 Sep 08:45:42 08:47:09 11° 88° (E) 08:48:36 145.935
Cubesat XI-IV 26 Sep 08:49:06 08:53:05 22° 300° (WNW) 08:57:05 437.490
CUTE-I 26 Sep 08:49:54 08:53:51 21° 301° (WNW) 08:57:47 437.470
UWE-3 26 Sep 08:51:29 08:54:50 22° 93° (E) 08:58:14 435.000/436.395/437.385
STRAND 1 26 Sep 08:54:27 08:56:37 13° 273° (W) 08:58:48 437.568
DOVE 4 26 Sep 08:58:23 09:01:27 19° 297° (WNW) 09:04:26 437.250
UNISAT 6 26 Sep 09:04:53 09:07:58 20° 63° (ENE) 09:11:04 437.425
PRISM 26 Sep 09:10:47 09:14:50 51° 260° (W) 09:18:57 437.425
COMPASS 1 26 Sep 09:13:51 09:18:04 70° 101° (E) 09:22:17 437.405
NOAA 18 26 Sep 09:15:34 09:19:10 18° 304° (NW) 09:22:46 137.9125
BEESAT 2 26 Sep 09:19:16 09:22:28 22° 38° (NE) 09:25:39 435.950
ZACube-1 26 Sep 09:24:44 09:28:34 31° 96° (E) 09:32:28 437.345
Cosmos 2499 26 Sep 09:25:25 09:32:34 84° 99° (E) 09:39:41 435.465 / 435.565
Oscar 11 26 Sep 09:26:22 09:30:15 31° 95° (E) 09:34:08 145.826/435.025
CUTE 1.7 + AOD 2 26 Sep 09:34:18 09:38:15 37° 291° (WNW) 09:42:12 437.475
CANX-2 26 Sep 09:35:16 09:39:06 32° 292° (WNW) 09:42:55 2200.000
DANDE 26 Sep 09:38:54 09:42:29 14° 286° (WNW) 09:46:02 436.750
SEEDS 26 Sep 09:39:04 09:43:09 45° 289° (WNW) 09:47:12 437.485
ANTELSAT 26 Sep 09:39:15 09:43:15 41° 70° (ENE) 09:47:16 437.575/2403.000
HO-68 26 Sep 09:48:24 09:55:20 55° 295° (WNW) 10:02:15 435.675
JAS-2 26 Sep 09:56:10 10:00:32 18° 49° (NE) 10:05:10 435.910
QB50P2 26 Sep 09:59:32 10:01:07 12° 58° (ENE) 10:02:43 145.880/145.840
TIGRISAT 26 Sep 10:00:03 10:04:16 64° 74° (ENE) 10:08:30 435.000
POLYITAN 1 26 Sep 10:01:47 10:03:21 12° 58° (ENE) 10:04:56 437.675
HUMSAT D 26 Sep 10:01:55 10:04:37 16° 91° (E) 10:07:19 437.325/437.525
BEESAT 3 26 Sep 10:04:44 10:08:44 87° 48° (NE) 10:12:42 437.485
CUBEBUG 2 26 Sep 10:05:29 10:09:31 44° 289° (WNW) 10:13:39 437.445
AAUSAT CUBESAT 2 26 Sep 10:07:02 10:11:00 40° 290° (WNW) 10:14:55 437.432
DELFI C3 26 Sep 10:07:25 10:11:06 33° 97° (E) 10:14:45 145.870
O/OREOS (USA 219) 26 Sep 10:11:49 10:13:03 11° 319° (NW) 10:14:18 437.305
GONETS M04 26 Sep 10:18:54 10:27:21 48° 289° (WNW) 10:35:53
FUNcube-1 26 Sep 10:19:36 10:23:54 78° 284° (WNW) 10:28:16 145.935
CINEMA 3 26 Sep 10:26:01 10:26:11 10° 302° (WNW) 10:26:20 145.822/145.860
UWE-3 26 Sep 10:27:27 10:31:26 39° 290° (WNW) 10:35:30 435.000/436.395/437.385
QB50P1 26 Sep 10:40:11 10:43:44 27° 66° (ENE) 10:47:18 145.935-145.965
DUCHIFAT 1 26 Sep 10:40:15 10:43:37 24° 65° (ENE) 10:46:59 145.980
UNISAT 6 26 Sep 10:40:18 10:44:24 45° 261° (W) 10:48:31 437.425
COMPASS 1 26 Sep 10:50:55 10:53:06 14° 300° (WNW) 10:55:16 437.405
BUGSAT 1 26 Sep 10:51:18 10:53:28 14° 61° (ENE) 10:55:38 437.445
POPSAT HIP 1 26 Sep 10:53:12 10:57:02 35° 69° (ENE) 11:00:52 437.405
BEESAT 2 26 Sep 10:56:38 11:00:36 55° 238° (WSW) 11:04:31 435.950
ZACube-1 26 Sep 11:01:07 11:04:48 29° 293° (WNW) 11:08:34 437.345
Oscar 11 26 Sep 11:02:34 11:06:20 29° 293° (WNW) 11:10:05 145.826/435.025
NANOSAT C BR1 26 Sep 11:10:29 11:14:33 51° 71° (ENE) 11:18:37 145.865
ANTELSAT 26 Sep 11:16:58 11:20:10 20° 267° (W) 11:23:22 437.575/2403.000
Cosmos 2499 26 Sep 11:21:41 11:26:41 20° 299° (WNW) 11:31:41 435.465 / 435.565
AIST 2 26 Sep 11:26:33 11:29:44 20° 36° (NE) 11:32:55 435.215
QB50P2 26 Sep 11:32:05 11:36:18 84° 258° (WSW) 11:40:32 145.880/145.840
POLYITAN 1 26 Sep 11:34:20 11:38:32 83° 259° (WSW) 11:42:45 437.675
HUMSAT D 26 Sep 11:36:24 11:40:32 53° 288° (WNW) 11:44:42 437.325/437.525
JAS-2 26 Sep 11:37:46 11:44:14 74° 71° (ENE) 11:51:35 435.910
HO-68 26 Sep 11:38:17 11:41:34 14° 316° (NW) 11:44:51 435.675
TIGRISAT 26 Sep 11:39:21 11:41:25 13° 271° (W) 11:43:29 435.000
DELFI C3 26 Sep 11:42:33 11:45:47 23° 294° (WNW) 11:49:00 145.870
BEESAT 3 26 Sep 11:44:58 11:45:44 10° 251° (WSW) 11:46:31 437.485
ESTCUBE 1 26 Sep 11:48:48 11:53:00 35° 97° (E) 11:57:08 437.505/2401.250
DX 1 26 Sep 11:54:45 11:56:43 13° 89° (E) 11:58:39 434.975-435.025
VELOX 1 26 Sep 11:55:59 11:59:20 21° 93° (E) 12:02:40 145.980
CUBEBUG 1 26 Sep 12:04:17 12:08:12 32° 96° (E) 12:12:04 437.445
50 SAT 26 Sep 12:07:39 12:10:41 24° 95° (E) 12:13:42 437.505
YUBILEINY 26 Sep 12:11:27 12:16:19 16° 52° (NE) 12:21:11 435.215
DUCHIFAT 1 26 Sep 12:15:19 12:19:09 35° 263° (W) 12:23:01 145.980
QB50P1 26 Sep 12:15:41 12:19:26 31° 264° (W) 12:23:12 145.935-145.965
AO-7 26 Sep 12:22:27 12:24:53 12° 32° (NNE) 12:27:19 29.400- 29.500
BUGSAT 1 26 Sep 12:24:17 12:28:22 65° 259° (W) 12:32:26 437.445
GONETS M04 26 Sep 12:24:24 12:27:00 11° 315° (NW) 12:29:36
PCSat 26 Sep 12:29:22 12:33:56 26° 40° (NE) 12:38:27 145.827
POPSAT HIP 1 26 Sep 12:29:31 12:32:54 23° 266° (W) 12:36:18 437.405
AUBIESAT-1 26 Sep 12:34:22 12:36:38 17° 99° (E) 12:38:53 437.475
PHONESAT 2.4 26 Sep 12:37:00 12:39:09 18° 166° (SSE) 12:41:18 2401.200-2431.200
Oscar 19 26 Sep 12:37:01 12:41:50 40° 67° (ENE) 12:46:40 437.125/150
AISAT 26 Sep 12:47:49 12:52:14 73° 103° (ESE) 12:56:36 437.250
NANOSAT C BR1 26 Sep 12:47:55 12:50:34 16° 269° (W) 12:53:15 145.865
SPROUT 26 Sep 12:52:53 12:56:59 45° 99° (E) 13:01:04 437.525
UKube-1 26 Sep 13:03:37 13:07:50 49° 100° (E) 13:12:01 .
AIST 2 26 Sep 13:04:28 13:08:40 70° 235° (SW) 13:12:49 435.215
M-CUBED/EXP-1 PRIME 26 Sep 13:09:33 13:12:49 59° 107° (ESE) 13:16:02 437.505
Gurwin Techsat 1B 26 Sep 13:21:26 13:26:30 48° 69° (ENE) 13:31:37 435.225
JAS-2 26 Sep 13:25:05 13:30:06 23° 274° (W) 13:35:37 435.910
ESTCUBE 1 26 Sep 13:25:49 13:29:41 28° 295° (WNW) 13:33:31 437.505/2401.250
ITAMSAT 1 26 Sep 13:28:11 13:31:42 19° 58° (ENE) 13:35:13 435.822/435.867
DX 1 26 Sep 13:29:03 13:33:24 71° 286° (WNW) 13:37:42 434.975-435.025
VELOX 1 26 Sep 13:31:49 13:36:01 43° 290° (WNW) 13:40:10 145.980
CUBEBUG 1 26 Sep 13:40:42 13:44:24 28° 294° (WNW) 13:48:05 437.445
50 SAT 26 Sep 13:41:02 13:44:10 27° 292° (WNW) 13:47:17 437.505
Cosmos 2504 26 Sep 14:04:48 14:10:45 26° 65° (ENE) 14:16:56 435.465 / 435.565
SWISSCUBE 26 Sep 14:05:31 14:08:03 14° 89° (E) 14:10:34 437.505
Cosmos 2491 26 Sep 14:06:07 14:13:25 31° 81° (E) 14:20:43 435.465 / 435.565
YUBILEINY 26 Sep 14:06:32 14:15:13 64° 76° (ENE) 14:23:49 435.215
AO-7 26 Sep 14:07:54 14:15:21 39° 56° (NE) 14:22:48 29.400- 29.500
AUBIESAT-1 26 Sep 14:08:16 14:11:14 30° 297° (WNW) 14:14:09 437.475
PHONESAT 2.4 26 Sep 14:12:19 14:14:47 24° 183° (S) 14:17:15 2401.200-2431.200
PCSat 26 Sep 14:12:25 14:17:49 68° 241° (WSW) 14:23:10 145.827
Oscar 19 26 Sep 14:16:41 14:21:14 31° 265° (W) 14:25:49 437.125/150
BEESAT 26 Sep 14:18:14 14:21:20 17° 90° (E) 14:24:24 436.000
TISAT 1 26 Sep 14:19:02 14:23:13 77° 103° (ESE) 14:27:23 437.305
AISAT 26 Sep 14:25:46 14:28:08 14° 301° (WNW) 14:30:32 437.250
SPROUT 26 Sep 14:29:31 14:32:38 20° 297° (WNW) 14:35:45 437.525
UKube-1 26 Sep 14:40:28 14:43:32 19° 298° (WNW) 14:46:36 .
M-CUBED/EXP-1 PRIME 26 Sep 14:46:06 14:46:55 11° 305° (NW) 14:47:45 437.505
Gurwin Techsat 1B 26 Sep 15:02:19 15:06:42 26° 267° (W) 15:11:06 435.225
ITAMSAT 1 26 Sep 15:05:28 15:10:37 72° 256° (WSW) 15:15:50 435.822/435.867
SO-50 26 Sep 15:14:16 15:18:16 26° 115° (ESE) 15:22:16 436.795
AIST 1 26 Sep 15:15:25 15:17:14 12° 64° (ENE) 15:19:01
HORYU 2 26 Sep 15:22:47 15:23:03 10° 55° (NE) 15:23:20 437.375
ITUPSAT 1 26 Sep 15:27:34 15:32:24 73° 103° (ESE) 15:37:13 437.325
SWISSCUBE 26 Sep 15:41:34 15:46:23 75° 287° (WNW) 15:51:11 437.505
PHONESAT 2.4 26 Sep 15:48:44 15:50:22 14° 199° (SSW) 15:51:59 2401.200-2431.200
BEESAT 26 Sep 15:54:47 15:59:32 63° 288° (WNW) 16:04:16 436.000
TISAT 1 26 Sep 15:56:29 15:58:17 13° 301° (WNW) 16:00:05 437.305
MOZHAYETS 4 26 Sep 15:57:26 16:01:31 29° 95° (E) 16:05:34
Cosmos 2504 26 Sep 15:57:29 16:04:47 71° 265° (W) 16:12:34 435.465 / 435.565
AO-7 26 Sep 15:59:38 16:07:48 59° 256° (WSW) 16:16:02 29.400- 29.500
Cosmos 2491 26 Sep 16:00:51 16:09:34 67° 283° (WNW) 16:18:25 435.465 / 435.565
YUBILEINY 26 Sep 16:04:07 16:11:25 32° 278° (W) 16:18:43 435.215
GOMX 1 26 Sep 16:23:58 16:26:19 13° 57° (ENE) 16:28:38 467.674
BRITE-PL 26 Sep 16:24:07 16:28:51 28° 64° (ENE) 16:33:29 437.365/2234.400
KKS-1 26 Sep 16:33:35 16:37:47 41° 99° (E) 16:41:57 437.445
NOAA 15 26 Sep 16:44:02 16:48:01 22° 59° (ENE) 16:52:01 137.62
AIST 1 26 Sep 16:51:06 16:55:24 74° 263° (W) 16:59:40
SO-50 26 Sep 16:53:50 16:58:32 50° 313° (NW) 17:03:11 436.795
HORYU 2 26 Sep 16:54:25 16:58:48 74° 74° (ENE) 17:03:14 437.375
Cubesat XI-IV 26 Sep 16:54:53 16:58:51 22° 60° (ENE) 17:02:51 437.490
CUTE-I 26 Sep 16:55:28 16:59:29 22° 60° (ENE) 17:03:30 437.470
O/OREOS (USA 219) 26 Sep 16:56:03 17:00:35 52° 60° (ENE) 17:05:04 437.305
LilacSat-2 26 Sep 16:57:12 16:59:11 14° 62° (ENE) 17:01:10 437.200
ITUPSAT 1 26 Sep 17:06:40 17:09:41 17° 301° (WNW) 17:12:42 437.325
STARS 26 Sep 17:11:15 17:15:30 49° 100° (E) 17:19:44 437.465
CUBESAT XI-V 26 Sep 17:13:18 17:17:12 25° 93° (E) 17:21:03 437.345
SWISSCUBE 26 Sep 17:21:45 17:23:21 12° 305° (NW) 17:24:57 437.505
NOAA 18 26 Sep 17:23:22 17:28:09 32° 63° (ENE) 17:32:57 137.9125
MOZHAYETS 4 26 Sep 17:34:30 17:38:41 34° 293° (WNW) 17:42:52
Cosmos 2504 26 Sep 17:53:43 17:56:50 13° 285° (WNW) 18:00:03 435.465 / 435.565
GOMX 1 26 Sep 17:58:15 18:03:38 77° 75° (ENE) 18:08:48 467.674
AO-7 26 Sep 18:00:03 18:02:23 11° 277° (W) 18:04:43 29.400- 29.500
BRITE-PL 26 Sep 18:01:27 18:07:00 53° 261° (W) 18:12:30 437.365/2234.400
Cosmos 2491 26 Sep 18:03:12 18:08:27 17° 308° (NW) 18:13:44 435.465 / 435.565
CUSAT 1 26 Sep 18:06:15 18:10:34 19° 77° (ENE) 18:15:24 437.405
KKS-1 26 Sep 18:10:37 18:14:08 23° 296° (WNW) 18:17:37 437.445
CINEMA 3 26 Sep 18:14:59 18:17:25 15° 61° (ENE) 18:19:48 145.822/145.860
